Location: Unspecified
(0.0000°N, 0.0000°E)
Time: 09:49:37
(UTC+00:00)

DMSP B5D2-7 - Visible Passes

Search period start: 25 April 2019 00:00
Search period end: 05 May 2019 00:00
Orbit: 831 x 848 km, 99.0° (Epoch: 24 April)

Date Brightness Start Highest point End Pass type
(mag) Time Alt. Az. Time Alt. Az. Time Alt. Az.
25 Apr 4.9 19:25:58 10° S 19:31:25 70° WSW 19:36:51 10° NNW visible
26 Apr 4.6 19:11:02 10° SSE 19:16:32 80° ENE 19:21:59 10° N visible
27 Apr 4.8 18:56:18 10° SSE 19:01:38 53° ENE 19:06:55 10° N visible
28 Apr 5.3 18:41:46 10° SE 18:46:44 35° ENE 18:51:39 10° NNE visible
28 Apr 7.2 20:23:42 10° SW 20:26:52 16° WSW 20:30:03 10° WNW visible
29 Apr 5.8 18:27:32 10° SE 18:31:49 24° ENE 18:36:06 10° NNE visible
29 Apr 6.7 20:07:42 10° SSW 20:11:59 24° WSW 20:16:16 10° NW visible
30 Apr 6.1 19:52:09 10° SSW 19:57:06 35° WSW 20:02:01 10° NW visible
01 May 5.4 19:36:53 10° S 19:42:12 53° WSW 19:47:30 10° NNW visible
02 May 4.7 19:21:49 10° S 19:27:19 79° WSW 19:32:46 10° NNW visible
03 May 4.6 19:06:57 10° SSE 19:12:25 70° ENE 19:17:49 10° N visible
04 May 5.0 18:52:16 10° SSE 18:57:30 46° ENE 19:02:41 10° N visible
04 May 7.4 20:35:52 10° WSW 20:37:37 12° WSW 20:39:23 10° W visible
